Location: New Plymouth
(39.0670°S, 174.0830°E)
Time: 22:45:58
(UTC+13:00)

Cosmos 2360 Rocket - Pass Details

Date: 24 January 2019
Orbit: 834 x 845 km, 71.0° (Epoch: 17 February)

Event Time Altitude Azimuth Distance (km) Brightness Sun altitude
Exits shadow 22:43:38 - 340° (NNW) 2,761 4.6 -19.2°
Reaches altitude 10° 22:44:24 10° 340° (NNW) 2,468 4.4 -19.3°
Maximum altitude 22:50:06 87° 69° (ENE) 861 2.1 -20.0°
Drops below altitude 10° 22:55:51 10° 156° (SSE) 2,495 5.0 -20.8°
Sets 22:58:19 0° 156° (SSE) 3,436 5.7 -21.1°
